AirNav  
 
 318 users online  

U08 Perkins Field Airport
Overton, Nevada, USA

GOING TO OVERTON?


FAA INFORMATION EFFECTIVE 25 FEBRUARY 2021

Location

FAA Identifier: U08
Lat/Long: 36-34-05.2000N 114-26-36.0000W
36-34.086667N 114-26.600000W
36.5681111,-114.4433333
(estimated)
Elevation: 1365.9 ft. / 416.3 m (surveyed)
Variation: 14E (1985)
From city: 2 miles N of OVERTON, NV
Time zone: UTC -8 (UTC -7 during Daylight Saving Time)
Zip code: 89021

Airport Operations

Airport use: Open to the public
Activation date: 06/1948
Control tower: no
ARTCC: LOS ANGELES CENTER
FSS: RENO FLIGHT SERVICE STATION
NOTAMs facility: RNO (NOTAM-D service available)
Attendance: THUR-MON DAYLIGHT HOURS
TUE & WED SVC AVBL ON CALL (702) 397-8457.
Pattern altitude: 2165.9 ft. MSL
Wind indicator: lighted
Segmented circle: yes
Lights: ACTVT MIRLS RY 13/31 - CTAF.
Beacon: white-green (lighted land airport)
Operates sunset to sunrise.

Airport Communications

CTAF/UNICOM: 122.8

Nearby radio navigation aids

VOR radial/distance  VOR name  Freq  Var
MMMr197/14.5MORMON MESA VORTAC114.3016E
BLDr016/39.9BOULDER CITY VORTAC116.7015E

Airport Services

Fuel available: 100
Oil available: ONLY ENOUGH OIL FOR ENG NEED, NO EXTRA SALES AVAILABLE.
Parking: tiedowns
Airframe service: NONE
Powerplant service: NONE
Bottled oxygen: NONE
Bulk oxygen: NONE

Runway Information

Runway 13/31

Dimensions: 4811 x 75 ft. / 1466 x 23 m
Surface: asphalt, in good condition
Weight bearing capacity: 
Single wheel: 30.0
Runway edge lights: medium intensity
RUNWAY 13  RUNWAY 31
Latitude: 36-34.431133N36-33.741918N
Longitude: 114-26.842670W114-26.356943W
Elevation: 1365.9 ft.1348.8 ft.
Traffic pattern: leftright
Markings: nonprecision, in fair conditionnonprecision, in fair condition
Runway end identifier lights: nono
Touchdown point: yes, no lightsyes, no lights
Obstructions: 4 ft. fence, 380 ft. from runway, 45:1 slope to clear15 ft. road, 360 ft. from runway, 10:1 slope to clear

Airport Ownership and Management from official FAA records

Ownership: Publicly-owned
Owner: CLARK COUNTY
PO BOX 11005
LAS VEGAS, NV 89111-1005
Phone (702) 261-5100
Manager: KARINA TARNOWSKA
2730 AIRPORT DRIVE STE. 101
NORTH LAS VEGAS, NV 89032
Phone 702-261-3804

Airport Operational Statistics

Aircraft based on the field: 1
Multi engine airplanes: 1
    
Aircraft operations: avg 20/day *
49% transient general aviation
49% local general aviation
2% military
* for 12-month period ending 31 July 2018

Additional Remarks

ULTRALIGHT AND SKYDIVING ACTIVITY ONGOING ON OR NEAR THE ARPT.
SKYDIVING ACT ON/INVOF ARPT DLY SR-SS.
FOR CD CTC LOS ANGELES ARTCC AT 661-575-2079.

Instrument Procedures

There are no published instrument procedures at U08.

Some nearby airports with instrument procedures:

67L - Mesquite Airport (24 nm NE)
KLSV - Nellis Air Force Base (35 nm SW)
KVGT - North Las Vegas Airport (42 nm SW)
KBVU - Boulder City Municipal Airport (42 nm SW)
KLAS - Mc Carran International Airport (45 nm SW)
 
Loc | Ops | Rwys | IFR | FBO | Links
Com | Nav | Svcs | Stats | Notes
Area around U08 (Perkins Field Airport)
 
Road maps at: MapQuest Bing Google
 
Aerial photo
WARNING: Photo may not be current or correct
Aerial photo of U08 (Perkins Field Airport)
Photo courtesy of focalflight.com
Photo taken 09-Dec-2015
looking south.

Do you have a better or more recent aerial photo of Perkins Field Airport that you would like to share? If so, please send us your photo.

 
Sectional chart

 
Airport distance calculator
Flying to Perkins Field Airport? Find the distance to fly.

From to U08

Sunrise and sunset
Times for 04-Mar-2021
 Local
(UTC-8)
 Zulu
(UTC)
Morning civil twilight05:3913:39
Sunrise06:0514:05
Sunset17:3401:34
Evening civil twilight18:0002:00

Current date and time
Zulu (UTC)  04-Mar-2021 08:03:30
Local (UTC-8)  04-Mar-2021 00:03:30
 
METAR
KLSV 
35nm SW 
040758Z AUTO 17008KT 10SM SCT100 11/M01 A2995 RMK AO2 SLP134 T01101011 402000035 $
KBVU 
42nm SW 
040755Z AUTO 00000KT 10SM FEW033 SCT046 BKN060 11/M01 A2998 RMK AO2
KVGT 
43nm SW 
040753Z AUTO 20011KT 10SM CLR 12/M02 A2990 RMK AO2 SLP134 T01171017 402000044
KLAS 
45nm SW 
040756Z 20006KT 10SM SCT080 11/M01 A2996 RMK AO2 SLP137 SCT V BKN T01061011 401940061
KHND 
48nm SW 
040756Z AUTO 18007KT 10SM OVC090 09/M02 A2998 RMK AO2 SLP163 T00941022 401940028
TAF
KLSV 
35nm SW 
032300Z 0323/0505 19010G15KT 9999 VCSH SCT100 BKN120 QNH2968INS TEMPO 0323/0406 21015G25KT 520009 BECMG 0405/0406 21012KT 9999 NSW SCT080 BKN100 QNH2982INS BECMG 0411/0412 VRB06KT 9999 FEW100 QNH2994INS BECMG 0422/0423 13010G15KT 9999 SKC QNH2996INS TX20/0400Z TN05/0413Z
NOTAMs
Click for the latest NOTAMs
NOTAMs are issued by the DoD/FAA and will open in a separate window not controlled by AirNav.

 

 
 

FBO, Fuel Providers, and Aircraft Ground Support

  
 Business Name 
 
 Contact 
 
 Services / Description 
 
Fuel Prices
 
Comments
  
Perkins Field 702-397-2716 Airport management, Aviation fuel, Aircraft parking (ramp or tiedown)

More info about Perkins Field
World Fuel Services
100LL
SS $4.54 
 Updated 03-Mar-2021
 
   write
SS=Self service
Update Fuel Prices
 

Would you like to see your business listed on this page?

 If your business provides an interesting product or service to pilots, flight crews, aircraft, or users of the Perkins Field Airport, you should consider listing it here.  To start the listing process, click on the button below
 
Add a business
 

Other Pages about Perkins Field Airport

Update a link
 
Copyright © AirNav, LLC. All rights reserved. Privacy Policy  Contact